Location: Castro Valley
(37.6940°N, 122.0850°W)
Time: 21:01:45
(UTC-07:00)

PANSAT - Visible Passes

Search period start: 30 October 2014 00:00
Search period end: 08 November 2014 23:00
Orbit: 489 x 496 km, 28.5° (Epoch: 30 October)

Date Brightness Start Highest point End Pass type
(mag) Time Alt. Az. Time Alt. Az. Time Alt. Az.
30 Oct 9.6 05:49:40 17° S 05:50:30 18° S 05:53:13 10° SE visible
31 Oct 9.8 05:25:39 18° SSE 05:25:39 18° SSE 05:27:40 10° SE visible
31 Oct 9.7 07:01:42 10° SW 07:04:29 19° S 07:07:16 10° SE visible
01 Nov 10.5 05:01:35 12° SE 05:01:35 12° SE 05:02:06 10° SE visible
01 Nov 9.6 06:36:08 10° SW 06:38:53 19° S 06:41:39 10° SE visible
02 Nov 9.5 05:11:54 16° SW 05:13:17 19° S 05:16:00 10° SE visible
03 Nov 9.6 04:47:49 18° S 04:47:49 18° S 04:50:21 10° SE visible
04 Nov 10.2 04:23:44 14° SSE 04:23:44 14° SSE 04:24:41 10° SE visible
